Time,TemperatureF,DewpointF,PressureIn,WindDirection,WindDirectionDegrees,WindSpeedMPH,WindSpeedGustMPH,Humidity,HourlyPrecipIn,Conditions,Clouds,dailyrainin,SolarRadiationWatts/m^2,SoftwareType,DateUTC
2014-12-18 00:02:00,47.6,46.2,28.73,SW,223,0.0,0.0,95,0.00,,,0.00,0,WeatherCatV1.24B11,2014-12-18 08:02:00,
2014-12-18 00:07:00,46.3,45.5,28.72,NNE,17,1.0,1.0,97,0.00,,,0.00,0,WeatherCatV1.24B11,2014-12-18 08:07:00,
2014-12-18 00:12:00,46.3,45.5,28.72,NNE,19,0.0,2.0,97,0.00,,,0.00,0,WeatherCatV1.24B11,2014-12-18 08:12:00,
2014-12-18 00:17:00,46.3,45.5,28.72,NNE,19,0.0,0.0,97,0.00,,,0.00,0,WeatherCatV1.24B11,2014-12-18 08:17:00,
2014-12-18 00:22:00,46.3,45.5,28.72,NNE,19,0.0,0.0,97,0.00,,,0.00,0,WeatherCatV1.24B11,2014-12-18 08:22:00,
2014-12-18 00:27:00,46.3,45.5,28.72,NNE,19,1.0,1.0,97,0.00,,,0.00,0,WeatherCatV1.24B11,2014-12-18 08:27:00,
2014-12-18 00:32:00,46.3,45.5,28.72,NNE,19,0.0,1.0,97,0.00,,,0.00,0,WeatherCatV1.24B11,2014-12-18 08:32:00,
2014-12-18 00:37:00,46.3,45.5,28.72,NNE,19,0.0,0.0,97,0.00,,,0.00,0,WeatherCatV1.24B11,2014-12-18 08:37:00,
2014-12-18 00:42:00,46.3,45.5,28.72,NNE,19,0.0,0.0,97,0.00,,,0.00,0,WeatherCatV1.24B11,2014-12-18 08:42:00,
2014-12-18 00:47:00,46.3,45.5,28.72,NNE,19,1.0,2.0,97,0.00,,,0.00,0,WeatherCatV1.24B11,2014-12-18 08:47:00,
2014-12-18 00:52:00,46.3,45.5,28.72,NE,49,1.0,3.0,97,0.00,,,0.00,0,WeatherCatV1.24B11,2014-12-18 08:52:00,
2014-12-18 00:57:00,46.2,45.7,28.72,NE,54,1.0,2.0,98,0.00,,,0.00,0,WeatherCatV1.24B11,2014-12-18 08:57:00,
2014-12-18 01:02:00,46.2,45.4,28.72,NE,54,1.0,2.0,97,0.00,,,0.00,0,WeatherCatV1.24B11,2014-12-18 09:02:00,
2014-12-18 01:07:00,46.2,45.4,28.72,ENE,63,1.0,3.0,97,0.00,,,0.00,0,WeatherCatV1.24B11,2014-12-18 09:07:00,
2014-12-18 01:12:00,46.1,45.3,28.71,East,83,2.0,3.0,97,0.00,,,0.01,0,WeatherCatV1.24B11,2014-12-18 09:12:00,
2014-12-18 01:17:00,46.0,45.2,28.72,ENE,59,2.0,3.0,97,0.00,,,0.01,0,WeatherCatV1.24B11,2014-12-18 09:17:00,
2014-12-18 01:22:00,45.9,45.1,28.72,ENE,63,1.0,2.0,97,0.00,,,0.01,0,WeatherCatV1.24B11,2014-12-18 09:22:00,
2014-12-18 01:27:00,45.8,45.0,28.72,ENE,65,0.0,2.0,97,0.00,,,0.01,0,WeatherCatV1.24B11,2014-12-18 09:27:00,
2014-12-18 01:32:00,45.8,45.0,28.72,ENE,66,0.0,2.0,97,0.00,,,0.01,0,WeatherCatV1.24B11,2014-12-18 09:32:00,
2014-12-18 01:37:00,45.8,45.0,28.72,ENE,66,1.0,1.0,97,0.00,,,0.02,0,WeatherCatV1.24B11,2014-12-18 09:37:00,
2014-12-18 01:42:00,45.7,44.9,28.72,ENE,66,0.0,1.0,97,0.00,,,0.02,0,WeatherCatV1.24B11,2014-12-18 09:42:00,
2014-12-18 01:47:00,45.7,44.9,28.72,ENE,66,0.0,2.0,97,0.00,,,0.02,0,WeatherCatV1.24B11,2014-12-18 09:47:00,
2014-12-18 01:52:00,45.7,44.9,28.72,ENE,66,1.0,2.0,97,0.00,,,0.02,0,WeatherCatV1.24B11,2014-12-18 09:52:00,
2014-12-18 01:57:00,45.7,44.9,28.72,ENE,66,0.0,1.0,97,0.00,,,0.02,0,WeatherCatV1.24B11,2014-12-18 09:57:00,
2014-12-18 02:02:00,45.7,44.9,28.72,ENE,66,1.0,2.0,97,0.00,,,0.02,0,WeatherCatV1.24B11,2014-12-18 10:02:00,
2014-12-18 02:07:00,45.7,44.9,28.72,ENE,66,1.0,1.0,97,0.00,,,0.02,0,WeatherCatV1.24B11,2014-12-18 10:07:00,
2014-12-18 02:12:00,45.6,44.8,28.72,ENE,66,1.0,2.0,97,0.00,,,0.02,0,WeatherCatV1.24B11,2014-12-18 10:12:00,
2014-12-18 02:17:00,45.6,44.8,28.72,ENE,66,1.0,1.0,97,0.00,,,0.02,0,WeatherCatV1.24B11,2014-12-18 10:17:00,
2014-12-18 02:22:00,45.6,44.8,28.72,ENE,66,0.0,1.0,97,0.00,,,0.02,0,WeatherCatV1.24B11,2014-12-18 10:22:00,
2014-12-18 02:27:00,45.6,44.8,28.72,ENE,66,1.0,2.0,97,0.00,,,0.02,0,WeatherCatV1.24B11,2014-12-18 10:27:00,
2014-12-18 02:32:00,45.6,44.8,28.72,ENE,66,1.0,1.0,97,0.00,,,0.02,0,WeatherCatV1.24B11,2014-12-18 10:32:00,
2014-12-18 02:37:00,45.6,44.8,28.72,ENE,66,0.0,1.0,97,0.00,,,0.03,0,WeatherCatV1.24B11,2014-12-18 10:37:00,
2014-12-18 02:42:00,45.6,44.8,28.72,ENE,62,1.0,2.0,97,0.00,,,0.03,0,WeatherCatV1.24B11,2014-12-18 10:42:00,
2014-12-18 02:47:00,45.7,44.9,28.72,ENE,62,1.0,2.0,97,0.00,,,0.03,0,WeatherCatV1.24B11,2014-12-18 10:47:00,
2014-12-18 02:52:00,45.7,44.9,28.72,ENE,62,1.0,2.0,97,0.00,,,0.03,0,WeatherCatV1.24B11,2014-12-18 10:52:00,
2014-12-18 02:57:00,45.7,44.9,28.72,ENE,68,1.0,2.0,97,0.00,,,0.03,0,WeatherCatV1.24B11,2014-12-18 10:57:00,
2014-12-18 03:02:00,45.7,44.9,28.72,ENE,68,0.0,3.0,97,0.00,,,0.03,0,WeatherCatV1.24B11,2014-12-18 11:02:00,
2014-12-18 03:08:00,45.7,44.9,28.72,ENE,68,0.0,2.0,97,0.00,,,0.03,0,WeatherCatV1.24B11,2014-12-18 11:08:00,
2014-12-18 03:13:00,45.7,44.9,28.72,ENE,68,0.0,2.0,97,0.00,,,0.03,0,WeatherCatV1.24B11,2014-12-18 11:13:00,
2014-12-18 03:18:00,45.6,44.8,28.72,ENE,68,0.0,1.0,97,0.00,,,0.04,0,WeatherCatV1.24B11,2014-12-18 11:18:00,
2014-12-18 03:23:00,45.7,44.9,28.72,ENE,68,1.0,1.0,97,0.00,,,0.04,0,WeatherCatV1.24B11,2014-12-18 11:23:00,
2014-12-18 03:28:00,45.7,44.9,28.72,ENE,68,1.0,2.0,97,0.00,,,0.04,0,WeatherCatV1.24B11,2014-12-18 11:28:00,
2014-12-18 03:33:00,45.7,44.9,28.72,ENE,68,0.0,1.0,97,0.00,,,0.04,0,WeatherCatV1.24B11,2014-12-18 11:33:00,
2014-12-18 03:38:00,45.7,44.9,28.72,ENE,68,0.0,0.0,97,0.00,,,0.04,0,WeatherCatV1.24B11,2014-12-18 11:38:00,
2014-12-18 03:43:00,45.8,45.0,28.72,ENE,68,0.0,2.0,97,0.00,,,0.04,0,WeatherCatV1.24B11,2014-12-18 11:43:00,
2014-12-18 03:48:00,45.8,45.0,28.72,ENE,68,0.0,0.0,97,0.00,,,0.04,0,WeatherCatV1.24B11,2014-12-18 11:48:00,
2014-12-18 03:53:00,45.8,45.0,28.72,ENE,68,0.0,1.0,97,0.00,,,0.04,0,WeatherCatV1.24B11,2014-12-18 11:53:00,
2014-12-18 03:58:00,45.8,45.0,28.72,ENE,68,1.0,2.0,97,0.00,,,0.04,0,WeatherCatV1.24B11,2014-12-18 11:58:00,
2014-12-18 04:03:00,45.8,45.0,28.72,ENE,68,0.0,0.0,97,0.00,,,0.04,0,WeatherCatV1.24B11,2014-12-18 12:03:00,
2014-12-18 04:08:00,45.8,45.0,28.72,ENE,68,1.0,1.0,97,0.00,,,0.04,0,WeatherCatV1.24B11,2014-12-18 12:08:00,
2014-12-18 04:13:00,45.8,45.0,28.72,ENE,68,1.0,2.0,97,0.00,,,0.04,0,WeatherCatV1.24B11,2014-12-18 12:13:00,
2014-12-18 04:18:00,45.8,45.0,28.72,ENE,68,1.0,2.0,97,0.00,,,0.04,0,WeatherCatV1.24B11,2014-12-18 12:18:00,
2014-12-18 04:23:00,45.8,45.0,28.71,ENE,68,1.0,2.0,97,0.00,,,0.04,0,WeatherCatV1.24B11,2014-12-18 12:23:00,
2014-12-18 04:28:00,45.8,45.0,28.72,ENE,68,0.0,2.0,97,0.00,,,0.04,0,WeatherCatV1.24B11,2014-12-18 12:28:00,
2014-12-18 04:33:00,45.8,45.0,28.71,ENE,68,1.0,1.0,97,0.00,,,0.04,0,WeatherCatV1.24B11,2014-12-18 12:33:00,
2014-12-18 04:38:00,45.8,45.0,28.71,ENE,68,0.0,0.0,97,0.00,,,0.04,0,WeatherCatV1.24B11,2014-12-18 12:38:00,
2014-12-18 04:43:00,45.8,45.0,28.71,ENE,68,0.0,2.0,97,0.00,,,0.04,0,WeatherCatV1.24B11,2014-12-18 12:43:00,
2014-12-18 04:48:00,45.8,45.0,28.71,ENE,68,0.0,1.0,97,0.00,,,0.04,0,WeatherCatV1.24B11,2014-12-18 12:48:00,
2014-12-18 04:53:00,45.8,45.0,28.71,ENE,68,0.0,0.0,97,0.00,,,0.04,0,WeatherCatV1.24B11,2014-12-18 12:53:00,
2014-12-18 04:58:00,45.8,45.0,28.71,ENE,68,0.0,1.0,97,0.00,,,0.04,0,WeatherCatV1.24B11,2014-12-18 12:58:00,
2014-12-18 05:03:00,45.8,45.0,28.71,ENE,68,1.0,1.0,97,0.00,,,0.04,0,WeatherCatV1.24B11,2014-12-18 13:03:00,
2014-12-18 05:08:00,45.9,45.1,28.71,ENE,68,0.0,0.0,97,0.00,,,0.04,0,WeatherCatV1.24B11,2014-12-18 13:08:00,
2014-12-18 05:13:00,45.9,45.1,28.71,ENE,68,0.0,0.0,97,0.00,,,0.04,0,WeatherCatV1.24B11,2014-12-18 13:13:00,
2014-12-18 05:18:00,45.9,45.1,28.72,ENE,68,0.0,0.0,97,0.00,,,0.04,0,WeatherCatV1.24B11,2014-12-18 13:18:00,
2014-12-18 05:23:00,45.9,45.1,28.72,ENE,68,0.0,0.0,97,0.00,,,0.04,0,WeatherCatV1.24B11,2014-12-18 13:23:00,
2014-12-18 05:28:00,45.9,45.1,28.72,ENE,68,0.0,0.0,97,0.00,,,0.04,0,WeatherCatV1.24B11,2014-12-18 13:28:00,
2014-12-18 05:33:00,45.9,45.1,28.72,ENE,68,0.0,0.0,97,0.00,,,0.04,0,WeatherCatV1.24B11,2014-12-18 13:33:00,
2014-12-18 05:38:00,45.9,45.1,28.72,ENE,68,0.0,1.0,97,0.00,,,0.04,0,WeatherCatV1.24B11,2014-12-18 13:38:00,
2014-12-18 05:43:00,45.9,45.1,28.72,ENE,68,0.0,0.0,97,0.00,,,0.04,0,WeatherCatV1.24B11,2014-12-18 13:43:00,
2014-12-18 05:48:00,45.9,45.1,28.73,ENE,68,0.0,0.0,97,0.00,,,0.04,0,WeatherCatV1.24B11,2014-12-18 13:48:00,
2014-12-18 05:53:00,46.0,45.2,28.73,ENE,68,0.0,0.0,97,0.00,,,0.04,0,WeatherCatV1.24B11,2014-12-18 13:53:00,
2014-12-18 05:58:00,46.0,45.2,28.73,ENE,68,0.0,0.0,97,0.00,,,0.04,0,WeatherCatV1.24B11,2014-12-18 13:58:00,
2014-12-18 06:03:00,45.9,45.1,28.73,ENE,68,0.0,1.0,97,0.00,,,0.04,0,WeatherCatV1.24B11,2014-12-18 14:03:00,
2014-12-18 06:08:00,45.9,45.1,28.73,ENE,68,0.0,0.0,97,0.00,,,0.04,0,WeatherCatV1.24B11,2014-12-18 14:08:00,
2014-12-18 06:13:00,46.0,45.2,28.73,ENE,68,0.0,1.0,97,0.00,,,0.04,0,WeatherCatV1.24B11,2014-12-18 14:13:00,
2014-12-18 06:18:00,45.9,45.1,28.73,ENE,68,0.0,0.0,97,0.00,,,0.04,0,WeatherCatV1.24B11,2014-12-18 14:18:00,
2014-12-18 06:23:00,45.9,45.1,28.73,ENE,68,0.0,0.0,97,0.00,,,0.04,0,WeatherCatV1.24B11,2014-12-18 14:23:00,
2014-12-18 06:28:00,46.0,45.2,28.74,ENE,68,0.0,1.0,97,0.00,,,0.04,0,WeatherCatV1.24B11,2014-12-18 14:28:00,
2014-12-18 06:33:00,46.0,45.2,28.73,ENE,68,0.0,0.0,97,0.00,,,0.04,0,WeatherCatV1.24B11,2014-12-18 14:33:00,
2014-12-18 06:38:00,46.0,45.2,28.73,ENE,68,1.0,1.0,97,0.00,,,0.04,0,WeatherCatV1.24B11,2014-12-18 14:38:00,
2014-12-18 06:43:00,46.0,45.2,28.73,ENE,68,0.0,0.0,97,0.00,,,0.04,0,WeatherCatV1.24B11,2014-12-18 14:43:00,
2014-12-18 06:48:00,46.0,45.2,28.74,ENE,68,0.0,1.0,97,0.00,,,0.04,0,WeatherCatV1.24B11,2014-12-18 14:48:00,
2014-12-18 06:53:00,46.0,45.2,28.74,ENE,68,0.0,1.0,97,0.00,,,0.04,0,WeatherCatV1.24B11,2014-12-18 14:53:00,
2014-12-18 06:58:00,46.1,45.3,28.74,ENE,68,0.0,1.0,97,0.00,,,0.04,0,WeatherCatV1.24B11,2014-12-18 14:58:00,
2014-12-18 07:03:00,46.1,45.3,28.74,ENE,68,0.0,1.0,97,0.00,,,0.04,0,WeatherCatV1.24B11,2014-12-18 15:03:00,
2014-12-18 07:08:00,46.1,45.3,28.74,ENE,68,1.0,2.0,97,0.00,,,0.04,0,WeatherCatV1.24B11,2014-12-18 15:08:00,
2014-12-18 07:13:00,46.1,45.3,28.74,ENE,68,1.0,2.0,97,0.00,,,0.04,7,WeatherCatV1.24B11,2014-12-18 15:13:00,
2014-12-18 07:18:00,46.1,45.3,28.74,ENE,68,1.0,2.0,97,0.00,,,0.04,11,WeatherCatV1.24B11,2014-12-18 15:18:00,
2014-12-18 07:23:00,46.1,45.3,28.75,ENE,68,0.0,0.0,97,0.00,,,0.04,14,WeatherCatV1.24B11,2014-12-18 15:23:00,
2014-12-18 07:28:00,46.2,45.4,28.75,ENE,68,0.0,0.0,97,0.00,,,0.04,18,WeatherCatV1.24B11,2014-12-18 15:28:00,
2014-12-18 07:33:00,46.3,45.5,28.75,ENE,68,0.0,0.0,97,0.00,,,0.04,19,WeatherCatV1.24B11,2014-12-18 15:33:00,
2014-12-18 07:38:00,46.3,45.5,28.75,ENE,68,0.0,1.0,97,0.00,,,0.04,21,WeatherCatV1.24B11,2014-12-18 15:38:00,
2014-12-18 07:43:00,46.3,45.5,28.76,ENE,68,0.0,0.0,97,0.00,,,0.04,25,WeatherCatV1.24B11,2014-12-18 15:43:00,
2014-12-18 07:48:00,46.4,45.6,28.76,ENE,68,1.0,2.0,97,0.00,,,0.04,28,WeatherCatV1.24B11,2014-12-18 15:48:00,
2014-12-18 07:53:00,46.5,45.7,28.77,ENE,68,1.0,1.0,97,0.00,,,0.04,33,WeatherCatV1.24B11,2014-12-18 15:53:00,
2014-12-18 07:58:00,46.6,45.8,28.77,North,0,1.0,2.0,97,0.00,,,0.04,42,WeatherCatV1.24B11,2014-12-18 15:58:00,
2014-12-18 08:03:00,46.7,45.9,28.77,North,0,2.0,2.0,97,0.00,,,0.04,46,WeatherCatV1.24B11,2014-12-18 16:03:00,
2014-12-18 08:08:00,46.8,46.0,28.77,North,0,1.0,2.0,97,0.00,,,0.04,40,WeatherCatV1.24B11,2014-12-18 16:08:00,
2014-12-18 08:13:00,46.9,46.1,28.77,North,0,2.0,2.0,97,0.00,,,0.04,44,WeatherCatV1.24B11,2014-12-18 16:13:00,
2014-12-18 08:18:00,47.0,46.2,28.77,NNE,27,1.0,1.0,97,0.00,,,0.04,49,WeatherCatV1.24B11,2014-12-18 16:18:00,
2014-12-18 08:23:00,47.1,46.3,28.77,NNE,27,0.0,0.0,97,0.00,,,0.04,62,WeatherCatV1.24B11,2014-12-18 16:23:00,
2014-12-18 08:28:00,47.2,46.4,28.77,North,5,3.0,3.0,97,0.00,,,0.04,81,WeatherCatV1.24B11,2014-12-18 16:28:00,
2014-12-18 08:33:00,47.4,46.6,28.78,NNW,327,1.0,2.0,97,0.00,,,0.04,102,WeatherCatV1.24B11,2014-12-18 16:33:00,
2014-12-18 08:38:00,47.5,46.7,28.77,NNW,328,0.0,1.0,97,0.00,,,0.05,109,WeatherCatV1.24B11,2014-12-18 16:38:00,
2014-12-18 08:43:00,47.7,46.9,28.78,NNW,327,0.0,1.0,97,0.00,,,0.05,118,WeatherCatV1.24B11,2014-12-18 16:43:00,
2014-12-18 08:48:00,47.7,46.9,28.78,NNW,328,0.0,0.0,97,0.00,,,0.05,120,WeatherCatV1.24B11,2014-12-18 16:48:00,